Content
SEND FEEDBACK

Daily
Averages
Monthly
Summary
Canada

QUEBEC CITY, QUEBEC


Home > North America > Canada > Quebec
Elevation: 239 feet     Latitude: 46 48N     Longitude: 071 23W

WEATHER
 
SELECT A DAY
Number of Records: 191,996;   Date Range: 6/30/96 - 7/23/14
 
SHARE

PRINT THIS DATA

[ ← Previous Day ]
WEATHER ALMANAC - OCTOBER 29, 2013
[ Next Day → ]
[ °C ]   °F
Weather ElementAverageHighLow
Temperature30.5 °F35.6 °F (1:00 pm)26.6 °F (9:00 pm)
Dewpoint21.5 °F26 °F (2:00 am)17.6 °F (12:00 pm)
Humidity67.8 %86 % (3:00 am)40 % (2:00 pm)
Barometer30.40 in30.46 in (10:00 am)30.35 in (1:00 am)
Wind Speed8.3 mph13.8 mph (4:00 am)
Wind Gust18.4 mph (2:00 pm)
Weather ElementAverage
Visibility19.6 mi
Wind DirectionWSW (244.3 °)

Weather ElementTotal
Precipitation---
Heating Degree Days33.9 (Base 65)
Averaged from 30 records on October 29, 2013
WEATHER CONDITIONS BREAKOUT
WIND DIRECTION BREAKOUT
WEATHER BY HOUR - OCTOBER 29, 2013
[ °C ]   °F
Local TimeTemperatureDewpointHumidityBarometerVisibilityWind DirectionWind SpeedGust SpeedPrecipitationEventsConditions
1:00 AM30.2 °F24.8 °F80 %30.35 in15.0 miWSW (240°)11.5 mphMostly Cloudy
2:00 AM30.0 °F26.0 °F79 %30.37 inSW (230°)5.8 mph
2:00 AM30.2 °F24.8 °F80 %30.38 in15.0 miWSW (240°)6.9 mphMostly Cloudy
3:00 AM28.4 °F24.8 °F86 %30.37 in15.0 miSW (230°)8.1 mphMostly Cloudy
4:00 AM28.4 °F23.0 °F80 %30.38 in15.0 miWSW (250°)13.8 mphOvercast
5:00 AM28.4 °F23.0 °F80 %30.39 in15.0 miSW (230°)10.4 mphOvercast
6:00 AM28.4 °F23.0 °F80 %30.41 in15.0 miWSW (250°)9.2 mphMostly Cloudy
7:00 AM28.4 °F23.0 °F80 %30.42 in15.0 miWSW (250°)11.5 mphMostly Cloudy
8:00 AM29.0 °F23.0 °F71 %30.43 inWest (260°)9.2 mph
8:00 AM28.4 °F21.2 °F74 %30.43 in15.0 miWest (260°)12.7 mphMostly Cloudy
9:00 AM30.2 °F19.4 °F64 %30.45 in15.0 miWSW (250°)9.2 mphMostly Cloudy
10:00 AM30.2 °F19.4 °F64 %30.46 in15.0 miWSW (240°)12.7 mphMostly Cloudy
11:00 AM32.0 °F20.0 °F49 %30.44 inWest (260°)5.8 mph
11:00 AM32.0 °F19.4 °F60 %30.45 in15.0 miWest (280°)10.4 mphMostly Cloudy
12:00 PM33.8 °F17.6 °F52 %30.45 in30.0 miWest (280°)9.2 mphMostly Cloudy
1:00 PM35.6 °F21.2 °F56 %30.43 in30.0 miWSW (250°)6.9 mphMostly Cloudy
2:00 PM35.0 °F19.0 °F40 %30.40 inSW (230°)10.4 mph
2:00 PM35.6 °F19.4 °F52 %30.41 in30.0 miWSW (240°)11.5 mph18.4 mphMostly Cloudy
3:00 PM35.6 °F21.2 °F56 %30.39 in30.0 miWSW (250°)11.5 mphScattered Clouds
4:00 PM33.8 °F19.4 °F56 %30.39 in30.0 miSW (220°)10.4 mphScattered Clouds
5:00 PM34.0 °F21.0 °F47 %30.38 inWSW (240°)3.5 mph
5:00 PM33.8 °F19.4 °F56 %30.39 in30.0 miWSW (240°)5.8 mphScattered Clouds
6:00 PM30.2 °F21.2 °F69 %30.39 in30.0 miWSW (240°)5.8 mphPartly Cloudy
7:00 PM28.4 °F21.2 °F74 %30.39 in15.0 miWSW (240°)5.8 mphPartly Cloudy
8:00 PM30.0 °F23.0 °F65 %30.39 inWSW (240°)5.8 mph
8:00 PM28.4 °F21.2 °F74 %30.40 in15.0 miWSW (240°)6.9 mphScattered Clouds
9:00 PM26.6 °F21.2 °F80 %30.38 in15.0 miWSW (240°)5.8 mphScattered Clouds
10:00 PM26.6 °F21.2 °F80 %30.38 in15.0 miWSW (240°)5.8 mphScattered Clouds
11:00 PM27.0 °F21.0 °F71 %30.35 inWSW (240°)2.3 mph
11:00 PM26.6 °F21.2 °F80 %30.36 in15.0 miSW (230°)4.6 mphScattered Clouds
Hourly data recorded from CYQB, located miles away from Quebec City, Quebec







STORIES FROM OUR PARTNERS